User: anonymous   Login
Location: Theydon Bois
(51.6750°N, 0.1050°E)
Time: 02:43:09
(UTC+00:00)
Language:

Cosmos 1500 Rocket - Orbit

View from above orbital plane
View from above orbital plane
View from above satellite
View from above satellite

Ground track
Ground track

The orbit data is extracted from the following two-line orbital elements,

1 14373U 83099B   18052.89329896  .00000093  00000-0  82650-5 0  9995
2 14373  82.5423  11.1826 0021551 120.4375 291.4613 14.83713685857900
Epoch (UTC): 21 February 2018 21:26:21
Eccentricity: 0.0021551
inclination: 82.5423°
perigee height: 602 km
apogee height: 633 km
right ascension of ascending node: 11.1826°
argument of perigee: 120.4375°
revolutions per day: 14.83713685
mean anomaly at epoch: 291.4613°
orbit number at epoch: 85790

The dashed part of the orbit path shows where the satellite is in the earth's shadow,  

DLR